Zurück zum Katalog

FREGAT R/B

AktivMEO
NORAD 43235·ROCKET BODY·🇷🇺 Russia

Gestartet Mar 9, 2018 von Guiana Space Centre

Loading…

Nächste Überflüge (nächste 24 Stunden)

TLE

AktuellSource: Space-Track

Epoche: Sep 14, 2026, 12:46 UTC

1 43235U 18024E   26257.53250388 -.00000024  00000-0  00000-0 0  9995
2 43235   0.0325 112.8091 0010625  12.5853 234.7058  5.21347969162216

Verfolge FREGAT R/B in Echtzeit mit AllMySat

Download on the App Store